Date String (YYYY-MM-DD hh:mm:ss) UTC,Instrument flags,absolute air pressure of the measurement (hPa),sample flow rate (lpm),inlet stack bypass flow (lpm),air temperature of the measurement (°C),ambient temperature measured by the external sensor (°C),aerosol sample conditioner tube jacket temperature (°C),OPC LED temperature (°C),internal box temperature (°C),relative humidity of the measurement (%),span deviation,mass concentration of particles derived from Lorenz-Mie calculation of OPC scattering (μg/m³),mass concentration of particles derived from Lorenz-Mie calculation of OPC scattering (μg/m³),mass concentration of particles derived from Lorenz-Mie calculation of OPC scattering (μg/m³)
DateTimeUTC,F1_M11,P_M11,Q1_M11,Q2_M11,T1_M11,T2_M11,T3_M11,T4_M11,T5_M11,U1_M11,ZSPAN_M11,X0_M11,X2_M11,X1_M11
2024-02-22 06:00:00,SystemResetWarning,0826.6,5.00,000.00,021.9,021.1,000.0,030.6,023.6,18.3,0000.0,0006.93,0002.00,0001.43
2024-02-22 06:01:00,SystemResetWarning,0826.6,5.00,000.00,021.9,021.1,000.0,030.5,023.6,18.3,0000.0,0007.41,0002.00,0001.43
2024-02-22 06:02:00,SystemResetWarning,0826.6,5.00,000.00,021.9,021.1,000.0,030.5,023.5,18.3,0000.0,0007.36,0002.01,0001.45
2024-02-22 06:03:00,SystemResetWarning,0826.5,5.00,000.00,021.9,021.1,000.0,030.5,023.5,18.5,0000.0,0006.25,0002.02,0001.44
2024-02-22 06:04:00,SystemResetWarning,0826.4,5.01,000.00,021.9,021.1,000.0,030.5,023.5,18.7,0000.0,0006.09,0002.03,0001.45
2024-02-22 06:05:00,SystemResetWarning,0826.4,5.00,000.00,021.9,021.1,000.0,030.5,023.5,18.8,0000.0,0006.26,0002.05,0001.47
2024-02-22 06:06:00,SystemResetWarning,0826.4,4.98,000.00,021.8,021.1,000.0,030.4,023.5,19.0,0000.0,0006.79,0002.04,0001.48
2024-02-22 06:07:00,SystemResetWarning,0826.4,5.00,000.00,021.8,021.0,000.0,030.4,023.4,19.1,0000.0,0006.69,0001.98,0001.48
2024-02-22 06:08:00,SystemResetWarning,0826.4,5.00,000.00,021.8,021.0,000.0,030.4,023.4,19.3,0000.0,0007.27,0002.02,0001.48
2024-02-22 06:09:00,SystemResetWarning,0826.4,5.01,000.00,021.8,021.0,000.0,030.4,023.4,19.4,0000.0,0007.50,0002.06,0001.48
2024-02-22 06:10:00,SystemResetWarning,0826.4,5.01,000.00,021.8,021.0,000.0,030.4,023.4,19.5,0000.0,0006.30,0002.07,0001.48
2024-02-22 06:11:00,SystemResetWarning,0826.4,5.00,000.00,021.7,021.0,000.0,030.3,023.3,19.6,0000.0,0006.17,0002.09,0001.48
2024-02-22 06:12:00,SystemResetWarning,0826.4,5.00,000.00,021.7,020.9,000.0,030.3,023.3,19.7,0000.0,0005.39,0002.10,0001.49
2024-02-22 06:13:00,SystemResetWarning,0826.4,5.00,000.00,021.7,020.9,000.0,030.3,023.3,19.8,0000.0,0005.26,0002.09,0001.50
2024-02-22 06:14:00,SystemResetWarning,0826.4,4.99,000.00,021.7,020.9,000.0,030.3,023.3,19.8,0000.0,0005.24,0002.07,0001.52
2024-02-22 06:15:00,SystemResetWarning,0826.4,5.00,000.00,021.7,020.9,000.0,030.3,023.3,19.8,0000.0,0005.82,0002.09,0001.53
2024-02-22 06:16:00,SystemResetWarning,0826.5,5.00,000.00,021.7,020.9,000.0,030.2,023.3,19.8,0000.0,0007.24,0002.12,0001.54
2024-02-22 06:17:00,SystemResetWarning,0826.5,5.00,000.00,021.6,020.9,000.0,030.2,023.3,19.8,0000.0,0006.76,0002.12,0001.54
2024-02-22 06:18:00,SystemResetWarning,0826.5,5.00,000.00,021.6,020.9,000.0,030.2,023.3,19.9,0000.0,0007.22,0002.15,0001.55
2024-02-22 06:19:00,SystemResetWarning,0826.4,5.00,000.00,021.6,020.9,000.0,030.2,023.3,19.8,0000.0,0007.31,0002.13,0001.56
2024-02-22 06:20:00,SystemResetWarning,0826.4,5.00,000.00,021.6,020.9,000.0,030.2,023.3,19.8,0000.0,0006.87,0002.09,0001.57
2024-02-22 06:21:00,SystemResetWarning,0826.4,5.00,000.00,021.6,020.9,000.0,030.2,023.3,19.9,0000.0,0006.76,0002.10,0001.59
2024-02-22 06:22:00,SystemResetWarning,0826.5,5.00,000.00,021.6,020.9,000.0,030.2,023.3,19.9,0000.0,0006.92,0002.18,0001.60
2024-02-22 06:23:00,SystemResetWarning,0826.5,5.00,000.00,021.6,020.9,000.0,030.2,023.3,20.0,0000.0,0006.99,0002.20,0001.60
2024-02-22 06:24:00,SystemResetWarning,0826.6,5.01,000.00,021.6,020.9,000.0,030.1,023.3,20.0,0000.0,0007.31,0002.18,0001.59
2024-02-22 06:25:00,SystemResetWarning,0826.6,5.00,000.00,021.5,020.9,000.0,030.1,023.2,20.1,0000.0,0007.30,0002.15,0001.58
2024-02-22 06:26:00,SystemResetWarning,0826.6,5.00,000.00,021.5,020.8,000.0,030.1,023.2,20.1,0000.0,0006.73,0002.11,0001.57
2024-02-22 06:27:00,SystemResetWarning,0826.6,5.00,000.00,021.5,020.8,000.0,030.1,023.2,20.1,0000.0,0005.01,0002.06,0001.57
2024-02-22 06:28:00,SystemResetWarning,0826.6,5.00,000.00,021.5,020.8,000.0,030.1,023.2,20.2,0000.0,0005.00,0002.05,0001.57
2024-02-22 06:29:00,SystemResetWarning,0826.6,5.00,000.00,021.5,020.8,000.0,030.1,023.2,20.2,0000.0,0004.31,0002.06,0001.58
2024-02-22 06:30:00,SystemResetWarning,0826.6,4.99,000.00,021.5,020.8,000.0,030.1,023.2,20.3,0000.0,0003.82,0002.08,0001.58
2024-02-22 06:31:00,SystemResetWarning,0826.6,4.99,000.00,021.5,020.8,000.0,030.0,023.2,20.3,0000.0,0003.81,0002.10,0001.58
2024-02-22 06:32:00,SystemResetWarning,0826.6,5.00,000.00,021.5,020.8,000.0,030.0,023.2,20.3,0000.0,0003.83,0002.12,0001.57
2024-02-22 06:33:00,SystemResetWarning,0826.6,5.01,000.00,021.5,020.8,000.0,030.0,023.1,20.3,0000.0,0003.95,0002.10,0001.55
2024-02-22 06:34:00,SystemResetWarning,0826.6,5.01,000.00,021.5,020.8,000.0,030.0,023.1,20.3,0000.0,0003.80,0002.04,0001.55
2024-02-22 06:35:00,SystemResetWarning,0826.6,5.00,000.00,021.4,020.7,000.0,030.0,023.1,20.3,0000.0,0003.42,0002.04,0001.54
2024-02-22 06:36:00,SystemResetWarning,0826.6,4.99,000.00,021.4,020.7,000.0,030.0,023.1,20.3,0000.0,0003.90,0002.07,0001.53
2024-02-22 06:37:00,SystemResetWarning,0826.6,5.00,000.00,021.4,020.7,000.0,029.9,023.1,20.3,0000.0,0003.98,0002.08,0001.52
2024-02-22 06:38:00,SystemResetWarning,0826.6,5.01,000.00,021.4,020.7,000.0,029.9,023.1,20.3,0000.0,0004.18,0002.10,0001.51
2024-02-22 06:39:00,SystemResetWarning,0826.6,5.01,000.00,021.4,020.7,000.0,029.9,023.1,20.3,0000.0,0004.37,0002.12,0001.50
2024-02-22 06:40:00,SystemResetWarning,0826.6,5.01,000.00,021.4,020.7,000.0,029.9,023.0,20.3,0000.0,0004.34,0002.11,0001.48
2024-02-22 06:41:00,SystemResetWarning,0826.6,4.99,000.00,021.3,020.6,000.0,029.9,023.0,20.2,0000.0,0004.44,0002.13,0001.47
2024-02-22 06:42:00,SystemResetWarning,0826.6,4.99,000.00,021.3,020.6,000.0,029.9,023.0,20.1,0000.0,0004.64,0002.17,0001.45
2024-02-22 06:43:00,SystemResetWarning,0826.6,5.01,000.00,021.3,020.6,000.0,029.9,023.0,20.1,0000.0,0004.78,0002.14,0001.45
2024-02-22 06:44:00,SystemResetWarning,0826.6,5.01,000.00,021.3,020.6,000.0,029.9,022.9,20.1,0000.0,0005.23,0002.09,0001.44
2024-02-22 06:45:00,SystemResetWarning,0826.6,5.00,000.00,021.3,020.5,000.0,029.9,022.9,20.2,0000.0,0005.62,0002.12,0001.44
2024-02-22 06:46:00,SystemResetWarning,0826.6,4.99,000.00,021.2,020.5,000.0,029.8,022.9,20.3,0000.0,0005.60,0002.11,0001.43
2024-02-22 06:47:00,SystemResetWarning,0826.6,4.99,000.00,021.2,020.5,000.0,029.8,022.9,20.3,0000.0,0005.28,0002.13,0001.42
2024-02-22 06:48:00,SystemResetWarning,0826.6,5.00,000.00,021.2,020.4,000.0,029.8,022.9,20.3,0000.0,0005.21,0002.14,0001.43
2024-02-22 06:49:00,SystemResetWarning,0826.6,5.00,000.00,021.2,020.4,000.0,029.8,022.8,20.4,0000.0,0005.38,0002.13,0001.43
2024-02-22 06:50:00,SystemResetWarning,0826.6,5.01,000.00,021.2,020.4,000.0,029.7,022.8,20.5,0000.0,0005.50,0002.10,0001.44
2024-02-22 06:51:00,SystemResetWarning,0826.6,5.00,000.00,021.1,020.4,000.0,029.7,022.7,20.6,0000.0,0005.42,0002.10,0001.46
2024-02-22 06:52:00,SystemResetWarning,0826.6,4.99,000.00,021.1,020.3,000.0,029.7,022.7,20.6,0000.0,0005.45,0002.10,0001.47
2024-02-22 06:53:00,SystemResetWarning,0826.6,5.00,000.00,021.1,020.3,000.0,029.7,022.7,20.7,0000.0,0005.68,0002.08,0001.49
2024-02-22 06:54:00,SystemResetWarning,0826.7,5.01,000.00,021.1,020.3,000.0,029.7,022.7,20.8,0000.0,0005.52,0002.06,0001.51
2024-02-22 06:55:00,SystemResetWarning,0826.8,5.00,000.00,021.0,020.3,000.0,029.6,022.6,20.9,0000.0,0005.24,0002.05,0001.52
2024-02-22 06:56:00,SystemResetWarning,0826.8,5.01,000.00,021.0,020.3,000.0,029.6,022.7,20.9,0000.0,0005.04,0002.07,0001.54
2024-02-22 06:57:00,SystemResetWarning,0826.8,5.00,000.00,021.0,020.3,000.0,029.6,022.7,21.0,0000.0,0005.23,0002.14,0001.56
2024-02-22 06:58:00,SystemResetWarning,0826.8,4.99,000.00,021.0,020.3,000.0,029.6,022.6,21.0,0000.0,0005.62,0002.16,0001.56
2024-02-22 06:59:00,SystemResetWarning,0826.8,5.00,000.00,021.0,020.2,000.0,029.6,022.6,21.1,0000.0,0005.63,0002.14,0001.57
